Zurück zum Katalog

STARLINK-36918

AktivKommunikationVLEO
NORAD 67956·PAYLOAD·🇺🇸 United States

Gestartet Feb 24, 2026 von Vandenberg Space Force Base

Loading…

Nächste Überflüge (nächste 24 Stunden)

TLE

AktuellSource: CelesTrak SupGP

Epoche: Sep 14, 2026, 22:47 UTC

1 67956C 26037AA  26257.94979167 -.00015111  00000+0 -54728-3 0  2571
2 67956  42.9994 201.8256 0001129 248.7114 201.5453 15.27587345    14

Verfolge STARLINK-36918 in Echtzeit mit AllMySat

Download on the App Store